Skip Page Navigation
NASA JPL Caltech
NASA Logo - Jet Propulsion Laboratory + View the NASA Portal
+ Center for Near-Earth Object Studies
JPL Home Earth Solar System Stars & Galaxies Technology
JPL Solar System Dynamics
BODIES ORBITS EPHEMERIDES TOOLS PHYSICAL DATA DISCOVERY FAQ SITE MAP
IMPORTANT: The SSD Announcement email list is now available. Major changes are coming in the near future, including possible hostname and/or URL changes. To be notified of such changes, subscribe to this email list.

Please visit this page for more details.


JPL Small-Body Database Browser
Search: [ help ]  
27589 Paigegentry (2000 YV95)
Classification: Main-belt Asteroid          SPK-ID: 2027589
Ephemeris | Orbit Diagram | Orbital Elements | Mission Design | Physical Parameters | Discovery Circumstances ]

[ show orbit diagram ]
Orbital Elements at Epoch 2459000.5 (2020-May-31.0) TDB
Reference: JPL 20 (heliocentric ecliptic J2000)
 Element Value Uncertainty (1-sigma)   Units 
e .0813847135144076 5.926e-08  
a 2.56692072941666 1.3682e-08 au
q 2.358012621238891 1.5126e-07 au
i .9951097192159568 4.5492e-06 deg
node 310.4857747054022 0.00034957 deg
peri 108.5082019830772 0.00035204 deg
M 288.8340932822141 3.9685e-05 deg
tp 2459297.452235389589
(2021-Mar-23.95223539)
0.00016554 TDB
period 1502.16317996458
4.11
1.201e-05
3.288e-08
d
yr
n .2396543896173042 1.916e-09 deg/d
Q 2.775828837594429 1.4795e-08 au
  Orbit Determination Parameters
   # obs. used (total)      746  
   data-arc span      9733 days (26.65 yr)  
   first obs. used      1991-09-09  
   last obs. used      2018-05-03  
   planetary ephem.      DE431  
   SB-pert. ephem.      SB431-N16  
   condition code      0  
   norm. resid. RMS      .59991  
   source      ORB  
   producer      Otto Matic  
   solution date      2019-Jul-13 01:04:25  

Additional Information
 Earth MOID = 1.37049 au 
 Jupiter MOID = 2.45995 au 
 T_jup = 3.427 
[ show covariance matrix ]

Ephemeris | Orbit Diagram | Orbital Elements | Mission Design | Physical Parameters | Discovery Circumstances ]

Physical Parameter Table
Parameter Symbol Value Units Sigma Reference Notes
absolute magnitude H 15.3   n/a MPO435955  

27589 Paigegentry           Discovered 2000 Dec. 30 by the Lincoln Laboratory Near-Earth Asteroid Research Team at Socorro.
Paige Maree Gentry (b. 1998) is a finalist in the 2012 Broadcom MASTERS, a math and science competition for middle-school students, for her animal and plant sciences project. She attends the Irion County ISD, Mertzon, Texas.
NOTE: some special characters may not display properly (any characters within {} are an attempt to place the proper accent above a character)
Reference: 20121029/MPCPages.arcLast Updated: 2013-03-29
Ephemeris | Orbit Diagram | Orbital Elements | Mission Design | Physical Parameters | Discovery Circumstances ]
ABOUT SSD CREDITS/AWARDS PRIVACY/COPYRIGHT GLOSSARY LINKS
FirstGov 2020-Apr-02 16:58 UT
(server date/time)  
NASA Home Page
Site Manager:   Ryan S. Park
Webmaster  Alan B. Chamberlin